Regional Weather Roundup
Issued by NWS

Home | Current Version | Previous Version | Text Only | Print | Product List | Glossary Off
Versions: 1 2 3 4 5 6 7 8 9 10 11 12 13 14 15 16 17 18 19 20 21 22 23 24 25 26 27 28 29 30 31 32 33 34 35 36 37 38 39 40 41 42 43 44 45 46 47 48 49 50

922
ASUS43 KOAX 270902
RWRNE

WEATHER ROUNDUP FOR NEBRASKA
NATIONAL WEATHER SERVICE OMAHA NE
300 AM CST MON FEB 27 2017

NOTES: SATELLITE DATA IS BEING USED TO AUGMENT CLOUD COVER ABOVE
       12000 FEET.
       "FAIR" INDICATES FEW OR NO CLOUDS BELOW 12,000 FEET WITH NO
       SIGNIFICANT WEATHER AND/OR OBSTRUCTIONS TO VISIBILITY.

  * THESE STATIONS DO NOT REPORT WEATHER SUCH AS RAIN...SNOW OR FOG.

NEZ001>004-019>022-054>056-271000-
NEBRASKA PANHANDLE

CITY           SKY/WX    TMP DP  RH WIND       PRES   REMARKS
SCOTTSBLUFF    CLOUDY    18   8  65 E12       29.76F WCI   5
ALLIANCE       CLOUDY    10   5  80 S13       29.76F WCI  -5
CHADRON        CLOUDY    11   5  77 CALM      29.74F
KIMBALL        CLOUDY    18  12  78 S9        29.74F WCI   6
SIDNEY         CLOUDY    19  10  68 SE10      29.77F WCI   7
$$

NEZ057>060-069>072-079>082-271000-
SOUTHWEST NEBRASKA

CITY           SKY/WX    TMP DP  RH WIND       PRES   REMARKS
NORTH PLATTE   CLEAR     16  10  77 E6        29.87F WCI   7
IMPERIAL       CLEAR     22  11  62 S8        29.84F WCI  12
LEXINGTON      CLEAR     18  14  82 CALM      29.90F
MCCOOK         CLEAR     17   9  70 CALM      29.89S
OGALLALA       CLOUDY    18  10  70 CALM      29.84F
$$

NEZ005>010-023>029-035>040-094-271000-
NORTH CENTRAL NEBRASKA

CITY           SKY/WX    TMP DP  RH WIND       PRES   REMARKS
VALENTINE      CLOUDY     9   3  77 W6        29.84F WCI  -1
AINSWORTH      CLEAR     19  12  74 SW8       29.85S WCI   9
BROKEN BOW     CLEAR     12   8  84 CALM      29.88F
O`NEILL        CLOUDY    14  10  83 S5        29.89F WCI   7
ORD            CLEAR     15  11  83 CALM      29.90F
THEDFORD       CLOUDY    15  10  83 CALM      29.85F
$$

NEZ041-046>049-061>064-073>077-083>087-271000-
SOUTH CENTRAL NEBRASKA

CITY           SKY/WX    TMP DP  RH WIND       PRES   REMARKS
GRAND ISLAND   CLEAR     26  17  68 S7        29.94S WCI  18
AURORA         CLEAR     26  15  65 S5        29.94F WCI  20
HASTINGS       CLEAR     29  14  53 S6        29.94S WCI  23
HEBRON         CLEAR     24  18  78 CALM      29.96F
HOLDREGE       CLEAR     24  11  57 SE5       29.90F WCI  18
KEARNEY *      CLEAR     21  16  79 CALM      29.92F
YORK           CLEAR     27  23  86 S6        29.95F WCI  20
$$

NEZ011>018-030>034-042>045-271000-
NORTHEAST NEBRASKA

CITY           SKY/WX    TMP DP  RH WIND       PRES   REMARKS
NORFOLK        CLEAR     22  18  85 SW7       29.93S WCI  13
ALBION         CLEAR     19  14  81 CALM      29.93S
BLAIR          CLEAR     27  22  80 S3        29.97S
FREMONT        CLEAR     30  23  73 S6        29.98R WCI  24
TEKAMAH        CLEAR     21  19  92 S6        29.98F WCI  13
WAYNE          CLEAR     22  18  85 S5        29.94S WCI  15
$$

NEZ050>053-065>068-078-088>093-271000-
SOUTHEAST NEBRASKA

CITY           SKY/WX    TMP DP  RH WIND       PRES   REMARKS
LINCOLN        CLEAR     20  18  92 N5        29.98F WCI  13
OMAHA EPPLEY   CLEAR     25  19  78 S5        29.99S WCI  19
BEATRICE       CLEAR     22  18  85 CALM      29.98S
FALLS CITY     CLEAR     22  19  89 SE3       29.99F
NEBRASKA CITY  CLEAR     31  17  55 S3        29.99S
PLATTSMOUTH    CLEAR     30  19  61 SE7       29.98F WCI  23
$$

NEZ044-045-051>053-067-271000-
OMAHA AREA

CITY           SKY/WX    TMP DP  RH WIND       PRES   REMARKS
OMAHA EPPLEY   CLEAR     25  19  78 S5        29.99S WCI  19
BLAIR          CLEAR     27  22  80 S3        29.97S
FREMONT        CLEAR     30  23  73 S6        29.98R WCI  24
MILLARD        CLEAR     26  24  93 CALM      29.99S
OFFUTT AFB     CLEAR     23  19  84 CALM      29.98S
PLATTSMOUTH    CLEAR     30  19  61 SE7       29.98F WCI  23
WAHOO          FAIR      24  21  89 CALM      29.97F
$$




USA.gov is the U.S. government's official web portal to all federal, state and local government web resources and services.